Location: Mount Kobau Star Party
(49.1167°N, 119.7333°W)
Time: 12:32:10
(UTC-07:00)

ACS3 Solar Sail - Pass Details

Date: 27 June 2024
Orbit: 992 x 1023 km, 97.4° (Epoch: 12 July)

Event Time Altitude Azimuth Distance (km) Brightness Sun altitude
Exits shadow 22:25:40 - 171° (S) 2,941 6.8 -9.7°
Reaches altitude 10° 22:26:10 10° 172° (S) 2,753 6.6 -9.7°
Maximum altitude 22:32:22 76° 258° (WSW) 1,024 5.0 -10.3°
Drops below altitude 10° 22:38:36 10° 345° (NNW) 2,765 8.5 -10.9°
Sets 22:41:06 0° 347° (NNW) 3,719 9.4 -11.1°
